EJU47DE EDDB-LIEO

Flight info

Callsign EJU47DE
Flight time 1h 58m
Altitude 36000
Route LUROS Y211 BEBKU Z36 MAREM DCT YUJKI DCT PEMEL DCT RUDAP DCT BAMTA DCT RADIZ DCT DETSA DCT MAMAR DCT GITRI
Aircraft A320/M-SDE3FGHIRWY/LB1

Departure

Time 2026-05-05 12:00
Airport Berlin Brandenburg Airport (EDDB)

Arrival

Time 2026-05-05 13:58
Airport Olbia Costa Smeralda Airport (LIEO)
Time Latitude Longitude Altitude Speed Heading
2026-05-05 11:44 52.36224 13.51716 154 ft 0 kts 339°
2026-05-05 11:48 52.36210 13.51724 154 ft 4 kts 339°
2026-05-05 11:48 52.36185 13.51740 154 ft 4 kts 339°
2026-05-05 11:49 52.36166 13.51754 154 ft 4 kts 324°
2026-05-05 11:49 52.36150 13.51784 154 ft 4 kts 277°
2026-05-05 11:49 52.36151 13.51808 154 ft 0 kts 249°
2026-05-05 11:52 52.36150 13.51804 154 ft 3 kts 249°
2026-05-05 11:52 52.36134 13.51732 154 ft 11 kts 249°
2026-05-05 11:52 52.36097 13.51578 154 ft 17 kts 249°
2026-05-05 11:53 52.36053 13.51392 154 ft 18 kts 249°
2026-05-05 11:53 52.36009 13.51206 154 ft 17 kts 248°
2026-05-05 11:53 52.35964 13.51019 154 ft 17 kts 249°
2026-05-05 11:53 52.35921 13.50838 154 ft 17 kts 248°
2026-05-05 11:54 52.35905 13.50683 154 ft 11 kts 298°
2026-05-05 11:54 52.35960 13.50626 154 ft 9 kts 338°
2026-05-05 11:54 52.36026 13.50584 154 ft 11 kts 339°
2026-05-05 11:54 52.36102 13.50536 154 ft 13 kts 338°
2026-05-05 11:55 52.36191 13.50479 154 ft 15 kts 339°
2026-05-05 11:55 52.36294 13.50414 154 ft 16 kts 339°
2026-05-05 11:55 52.36385 13.50357 154 ft 13 kts 339°
2026-05-05 11:55 52.36459 13.50311 154 ft 10 kts 339°
2026-05-05 11:56 52.36520 13.50271 154 ft 10 kts 339°
2026-05-05 11:56 52.36597 13.50222 154 ft 14 kts 338°
2026-05-05 11:56 52.36681 13.50168 154 ft 12 kts 336°
2026-05-05 11:56 52.36734 13.50076 154 ft 10 kts 312°
2026-05-05 11:57 52.36778 13.50002 154 ft 8 kts 289°
2026-05-05 11:57 52.36772 13.49918 154 ft 7 kts 250°
2026-05-05 11:57 52.36751 13.49824 154 ft 12 kts 248°
2026-05-05 11:57 52.36717 13.49680 154 ft 14 kts 249°
2026-05-05 11:58 52.36697 13.49532 154 ft 13 kts 290°
2026-05-05 11:58 52.36762 13.49461 154 ft 11 kts 337°
2026-05-05 11:58 52.36827 13.49437 154 ft 10 kts 10°
2026-05-05 11:58 52.36908 13.49529 154 ft 18 kts 39°
2026-05-05 11:59 52.37007 13.49659 154 ft 19 kts 36°
2026-05-05 11:59 52.37072 13.49784 154 ft 17 kts 69°
2026-05-05 11:59 52.37180 13.50242 155 ft 79 kts 69°
2026-05-05 11:59 52.37458 13.51413 155 ft 139 kts 69°
2026-05-05 12:00 52.37848 13.53085 474 ft 161 kts 71°
2026-05-05 12:00 52.38252 13.54815 1161 ft 164 kts 67°
2026-05-05 12:00 52.38689 13.56656 1618 ft 184 kts 68°
2026-05-05 12:00 52.39176 13.58724 1896 ft 206 kts 68°
2026-05-05 12:01 52.39725 13.61043 2165 ft 231 kts 68°
2026-05-05 12:01 52.40336 13.63625 2647 ft 255 kts 68°
2026-05-05 12:01 52.40989 13.66384 3444 ft 264 kts 69°
2026-05-05 12:01 52.41658 13.69226 4334 ft 270 kts 69°
2026-05-05 12:02 52.42341 13.72130 5161 ft 276 kts 69°
2026-05-05 12:02 52.43040 13.75100 5961 ft 282 kts 69°
2026-05-05 12:02 52.43755 13.78128 6720 ft 288 kts 69°
2026-05-05 12:02 52.44534 13.81189 7488 ft 293 kts 65°
2026-05-05 12:03 52.45388 13.84207 8280 ft 297 kts 64°
2026-05-05 12:03 52.46293 13.87285 9073 ft 302 kts 65°
2026-05-05 12:03 52.46884 13.90596 9816 ft 306 kts 86°
2026-05-05 12:03 52.46669 13.94065 10408 ft 313 kts 109°
2026-05-05 12:04 52.45586 13.97239 10611 ft 329 kts 136°
2026-05-05 12:04 52.43699 13.99443 10788 ft 343 kts 161°
2026-05-05 12:04 52.41325 14.00134 11088 ft 351 kts 185°
2026-05-05 12:04 52.39707 13.99948 11477 ft 354 kts 187°
2026-05-05 12:05 52.37238 13.99611 12159 ft 357 kts 188°
2026-05-05 12:05 52.34754 13.99256 12849 ft 360 kts 188°
2026-05-05 12:05 52.32243 13.98893 13529 ft 363 kts 188°
2026-05-05 12:05 52.29718 13.98532 14163 ft 366 kts 188°
2026-05-05 12:06 52.27170 13.98172 14764 ft 368 kts 188°
2026-05-05 12:06 52.24612 13.97813 15361 ft 371 kts 188°
2026-05-05 12:06 52.22029 13.97455 15941 ft 373 kts 188°
2026-05-05 12:06 52.19433 13.97097 16524 ft 376 kts 188°
2026-05-05 12:07 52.16818 13.96739 17064 ft 379 kts 188°
2026-05-05 12:07 52.14177 13.96372 17628 ft 382 kts 188°
2026-05-05 12:07 52.11515 13.96002 18171 ft 385 kts 188°
2026-05-05 12:07 52.08832 13.95631 18632 ft 388 kts 188°
2026-05-05 12:08 52.06130 13.95257 19097 ft 391 kts 188°
2026-05-05 12:08 52.03413 13.94881 19552 ft 393 kts 188°
2026-05-05 12:08 52.00675 13.94504 20011 ft 396 kts 188°
2026-05-05 12:08 51.97920 13.94126 20464 ft 398 kts 188°
2026-05-05 12:09 51.95150 13.93747 20907 ft 401 kts 188°
2026-05-05 12:09 51.92365 13.93370 21318 ft 403 kts 188°
2026-05-05 12:09 51.89554 13.92992 21738 ft 406 kts 188°
2026-05-05 12:09 51.86725 13.92608 22163 ft 409 kts 188°
2026-05-05 12:10 51.83884 13.92224 22587 ft 411 kts 188°
2026-05-05 12:10 51.81063 13.91841 22988 ft 413 kts 188°
2026-05-05 12:10 51.78194 13.91448 23390 ft 415 kts 188°
2026-05-05 12:10 51.75303 13.91051 23730 ft 418 kts 188°
2026-05-05 12:11 51.72399 13.90653 24058 ft 420 kts 188°
2026-05-05 12:11 51.69477 13.90255 24378 ft 422 kts 188°
2026-05-05 12:11 51.66552 13.89858 24720 ft 423 kts 188°
2026-05-05 12:11 51.63611 13.89456 25046 ft 425 kts 188°
2026-05-05 12:12 51.60660 13.89055 25365 ft 427 kts 188°
2026-05-05 12:12 51.57648 13.88651 25695 ft 429 kts 188°
2026-05-05 12:12 51.54667 13.88252 26001 ft 431 kts 188°
2026-05-05 12:12 51.51675 13.87852 26301 ft 433 kts 188°
2026-05-05 12:13 51.48668 13.87451 26592 ft 434 kts 188°
2026-05-05 12:13 51.45652 13.87009 26860 ft 434 kts 192°
2026-05-05 12:13 51.42734 13.86061 27146 ft 434 kts 195°
2026-05-05 12:13 51.39769 13.85071 27432 ft 436 kts 194°
2026-05-05 12:14 51.36800 13.84107 27722 ft 438 kts 194°
2026-05-05 12:14 51.33795 13.83141 28000 ft 439 kts 194°
2026-05-05 12:14 51.30798 13.82178 28331 ft 439 kts 194°
2026-05-05 12:14 51.27808 13.81209 28739 ft 438 kts 194°
2026-05-05 12:15 51.24824 13.80236 29148 ft 437 kts 195°
2026-05-05 12:15 51.21844 13.79259 29544 ft 435 kts 194°
2026-05-05 12:15 51.18884 13.78282 29915 ft 435 kts 195°
2026-05-05 12:15 51.15926 13.77303 30258 ft 434 kts 195°
2026-05-05 12:16 51.12971 13.76331 30589 ft 433 kts 195°
2026-05-05 12:16 51.10023 13.75369 30927 ft 432 kts 195°
2026-05-05 12:16 51.07091 13.74414 31264 ft 430 kts 195°
2026-05-05 12:16 51.04150 13.73459 31598 ft 429 kts 195°
2026-05-05 12:17 51.01224 13.72509 31912 ft 428 kts 195°
2026-05-05 12:17 50.98307 13.71556 32222 ft 428 kts 195°
2026-05-05 12:17 50.95393 13.70602 32530 ft 427 kts 195°
2026-05-05 12:17 50.92481 13.69651 32845 ft 427 kts 195°
2026-05-05 12:18 50.89578 13.68705 33162 ft 426 kts 195°
2026-05-05 12:18 50.86679 13.67764 33480 ft 425 kts 195°
2026-05-05 12:18 50.83781 13.66825 33812 ft 424 kts 195°
2026-05-05 12:18 50.80894 13.65890 34071 ft 423 kts 195°
2026-05-05 12:19 50.78044 13.64967 34329 ft 423 kts 195°
2026-05-05 12:19 50.75128 13.64029 34586 ft 422 kts 195°
2026-05-05 12:19 50.72283 13.63120 34824 ft 422 kts 195°
2026-05-05 12:19 50.69397 13.62242 35067 ft 422 kts 194°
2026-05-05 12:20 50.66501 13.61462 35327 ft 422 kts 193°
2026-05-05 12:20 50.63559 13.60739 35543 ft 422 kts 192°
2026-05-05 12:20 50.60689 13.60058 35752 ft 422 kts 192°
2026-05-05 12:20 50.57780 13.59367 35814 ft 424 kts 192°
2026-05-05 12:21 50.51943 13.57942 35816 ft 425 kts 192°
2026-05-05 12:21 50.46098 13.56471 35818 ft 425 kts 193°
2026-05-05 12:22 50.40252 13.54993 35813 ft 426 kts 193°
2026-05-05 12:22 50.34393 13.53521 35811 ft 426 kts 193°
2026-05-05 12:23 50.28547 13.52059 35812 ft 426 kts 192°
2026-05-05 12:23 50.22687 13.50596 35813 ft 426 kts 192°
2026-05-05 12:24 50.16834 13.49141 35805 ft 426 kts 192°
2026-05-05 12:24 50.10984 13.47689 35807 ft 426 kts 192°
2026-05-05 12:25 50.05162 13.46240 35793 ft 426 kts 192°
2026-05-05 12:25 49.99306 13.44801 35790 ft 426 kts 192°
2026-05-05 12:26 49.93437 13.43373 35799 ft 426 kts 192°
2026-05-05 12:26 49.87580 13.41935 35790 ft 426 kts 192°
2026-05-05 12:27 49.81719 13.40493 35792 ft 426 kts 192°
2026-05-05 12:27 49.75852 13.39058 35797 ft 427 kts 192°
2026-05-05 12:28 49.69989 13.37630 35803 ft 427 kts 192°
2026-05-05 12:28 49.64118 13.36202 35801 ft 427 kts 192°
2026-05-05 12:29 49.58245 13.34774 35804 ft 427 kts 192°
2026-05-05 12:29 49.52375 13.33358 35805 ft 427 kts 192°
2026-05-05 12:30 49.46505 13.31949 35802 ft 427 kts 192°
2026-05-05 12:30 49.40633 13.30532 35795 ft 427 kts 192°
2026-05-05 12:31 49.34803 13.29117 35799 ft 427 kts 192°
2026-05-05 12:31 49.28936 13.27704 35796 ft 427 kts 191°
2026-05-05 12:32 49.23172 13.25709 35797 ft 423 kts 204°
2026-05-05 12:32 49.17881 13.21851 35788 ft 421 kts 208°
2026-05-05 12:33 49.12615 13.17919 35788 ft 422 kts 207°
2026-05-05 12:33 49.07327 13.13991 35787 ft 422 kts 207°
2026-05-05 12:34 49.02043 13.10059 35790 ft 422 kts 207°
2026-05-05 12:34 48.96762 13.06132 35797 ft 422 kts 207°
2026-05-05 12:35 48.91481 13.02218 35800 ft 422 kts 207°
2026-05-05 12:35 48.86201 12.98317 35800 ft 422 kts 207°
2026-05-05 12:36 48.80957 12.94443 35801 ft 422 kts 207°
2026-05-05 12:36 48.75682 12.90557 35792 ft 422 kts 207°
2026-05-05 12:37 48.70118 12.87726 35794 ft 424 kts 194°
2026-05-05 12:37 48.64335 12.85887 35792 ft 425 kts 194°
2026-05-05 12:38 48.58554 12.84042 35789 ft 425 kts 194°
2026-05-05 12:38 48.52774 12.82183 35796 ft 424 kts 194°
2026-05-05 12:39 48.46996 12.80335 35799 ft 424 kts 194°
2026-05-05 12:39 48.41221 12.78492 35802 ft 424 kts 194°
2026-05-05 12:40 48.35443 12.76665 35799 ft 424 kts 194°
2026-05-05 12:40 48.29715 12.74850 35805 ft 423 kts 194°
2026-05-05 12:41 48.23954 12.73026 35806 ft 423 kts 194°
2026-05-05 12:41 48.18197 12.71209 35807 ft 423 kts 194°
2026-05-05 12:42 48.12443 12.69398 35805 ft 423 kts 194°
2026-05-05 12:42 48.06682 12.67581 35807 ft 422 kts 194°
2026-05-05 12:43 48.00934 12.65773 35810 ft 422 kts 194°
2026-05-05 12:43 47.95173 12.63966 35804 ft 422 kts 194°
2026-05-05 12:44 47.89424 12.62167 35804 ft 423 kts 194°
2026-05-05 12:44 47.83662 12.60376 35797 ft 423 kts 194°
2026-05-05 12:45 47.77930 12.58603 35794 ft 424 kts 193°
2026-05-05 12:45 47.72157 12.56818 35790 ft 424 kts 194°
2026-05-05 12:46 47.66376 12.55025 35803 ft 424 kts 194°
2026-05-05 12:46 47.60594 12.53225 35815 ft 425 kts 194°
2026-05-05 12:47 47.54817 12.51396 35818 ft 425 kts 194°
2026-05-05 12:47 47.49039 12.49560 35820 ft 425 kts 194°
2026-05-05 12:48 47.43265 12.47735 35827 ft 424 kts 194°
2026-05-05 12:48 47.37488 12.45915 35838 ft 425 kts 194°
2026-05-05 12:49 47.31700 12.44103 35838 ft 424 kts 194°
2026-05-05 12:49 47.25931 12.42291 35873 ft 424 kts 194°
2026-05-05 12:50 47.20164 12.40488 35893 ft 422 kts 194°
2026-05-05 12:50 47.14448 12.38702 35893 ft 422 kts 194°
2026-05-05 12:51 47.08701 12.36908 35910 ft 422 kts 194°
2026-05-05 12:51 47.03882 12.35410 35942 ft 422 kts 194°
2026-05-05 12:52 46.98179 12.33640 35955 ft 421 kts 194°
2026-05-05 12:52 46.92440 12.31865 35982 ft 421 kts 195°
2026-05-05 12:53 46.86693 12.30092 35992 ft 422 kts 194°
2026-05-05 12:53 46.80929 12.28315 36009 ft 423 kts 194°
2026-05-05 12:54 46.72210 12.25951 35991 ft 426 kts 193°
2026-05-05 12:55 46.66352 12.24505 35994 ft 427 kts 193°
2026-05-05 12:55 46.60481 12.23024 35995 ft 429 kts 193°
2026-05-05 12:56 46.54649 12.21536 35987 ft 429 kts 193°
2026-05-05 12:56 46.48758 12.20019 35985 ft 430 kts 194°
2026-05-05 12:57 46.42856 12.18511 35970 ft 431 kts 193°
2026-05-05 12:57 46.36949 12.17006 35991 ft 431 kts 194°
2026-05-05 12:58 46.31037 12.15508 35985 ft 431 kts 194°
2026-05-05 12:58 46.25108 12.14009 35996 ft 432 kts 194°
2026-05-05 12:59 46.19176 12.12506 36000 ft 433 kts 194°
2026-05-05 12:59 46.13239 12.11000 36012 ft 433 kts 194°
2026-05-05 13:00 46.04336 12.08756 36018 ft 433 kts 194°
2026-05-05 13:01 45.92454 12.05789 36024 ft 433 kts 194°
2026-05-05 13:01 45.86558 12.04316 36032 ft 433 kts 194°
2026-05-05 13:02 45.80613 12.02832 36036 ft 434 kts 194°
2026-05-05 13:02 45.74667 12.01359 36039 ft 434 kts 194°
2026-05-05 13:03 45.68723 11.99886 36028 ft 433 kts 194°
2026-05-05 13:03 45.62784 11.98411 36031 ft 433 kts 194°
2026-05-05 13:04 45.56849 11.96943 36032 ft 433 kts 194°
2026-05-05 13:04 45.50911 11.95474 36025 ft 432 kts 194°
2026-05-05 13:05 45.44985 11.94010 36032 ft 432 kts 194°
2026-05-05 13:05 45.39071 11.92555 36034 ft 431 kts 194°
2026-05-05 13:06 45.33155 11.91104 36029 ft 431 kts 194°
2026-05-05 13:06 45.27245 11.89656 36033 ft 430 kts 194°
2026-05-05 13:07 45.21338 11.88220 36033 ft 430 kts 194°
2026-05-05 13:07 45.15437 11.86789 36012 ft 430 kts 194°
2026-05-05 13:08 45.09582 11.85368 36012 ft 429 kts 194°
2026-05-05 13:08 45.03693 11.83938 36006 ft 429 kts 194°
2026-05-05 13:09 44.97812 11.82505 36005 ft 429 kts 194°
2026-05-05 13:09 44.91929 11.81081 36002 ft 428 kts 194°
2026-05-05 13:10 44.86061 11.79668 36003 ft 428 kts 194°
2026-05-05 13:10 44.80193 11.78256 35999 ft 427 kts 194°
2026-05-05 13:11 44.74331 11.76848 35993 ft 427 kts 194°
2026-05-05 13:11 44.68479 11.75447 35993 ft 426 kts 194°
2026-05-05 13:12 44.62628 11.74049 35993 ft 426 kts 194°
2026-05-05 13:12 44.56782 11.72652 35985 ft 425 kts 194°
2026-05-05 13:13 44.50960 11.71267 35993 ft 424 kts 194°
2026-05-05 13:13 44.45143 11.69889 35975 ft 424 kts 194°
2026-05-05 13:14 44.39329 11.68508 35989 ft 424 kts 194°
2026-05-05 13:14 44.33545 11.67133 36005 ft 424 kts 194°
2026-05-05 13:15 44.27737 11.65765 36018 ft 423 kts 194°
2026-05-05 13:15 44.21935 11.64404 36023 ft 422 kts 194°
2026-05-05 13:16 44.16148 11.63037 36026 ft 421 kts 194°
2026-05-05 13:16 44.10366 11.61675 36028 ft 421 kts 194°
2026-05-05 13:17 44.04585 11.60319 36039 ft 421 kts 194°
2026-05-05 13:17 43.98804 11.58968 36029 ft 421 kts 194°
2026-05-05 13:18 43.93053 11.57631 36033 ft 422 kts 194°
2026-05-05 13:18 43.87256 11.56284 36041 ft 422 kts 194°
2026-05-05 13:19 43.81470 11.54930 36017 ft 422 kts 194°
2026-05-05 13:19 43.75672 11.53588 36021 ft 423 kts 194°
2026-05-05 13:20 43.69860 11.52244 36029 ft 423 kts 194°
2026-05-05 13:20 43.64047 11.50899 36019 ft 424 kts 194°
2026-05-05 13:21 43.58235 11.49564 36024 ft 424 kts 194°
2026-05-05 13:21 43.52415 11.48225 36032 ft 424 kts 194°
2026-05-05 13:22 43.46596 11.46880 36031 ft 424 kts 194°
2026-05-05 13:22 43.40771 11.45537 36029 ft 424 kts 195°
2026-05-05 13:23 43.34944 11.44214 36032 ft 424 kts 195°
2026-05-05 13:23 43.32125 11.43196 36029 ft 416 kts 206°
2026-05-05 13:23 43.29440 11.41737 36028 ft 415 kts 206°
2026-05-05 13:24 43.24106 11.38796 36014 ft 415 kts 207°
2026-05-05 13:24 43.18748 11.35827 36023 ft 416 kts 207°
2026-05-05 13:25 43.13379 11.32857 36027 ft 416 kts 207°
2026-05-05 13:25 43.08001 11.29909 36048 ft 416 kts 207°
2026-05-05 13:26 43.02636 11.26975 36043 ft 415 kts 207°
2026-05-05 13:26 42.97284 11.24041 36043 ft 414 kts 207°
2026-05-05 13:27 42.91966 11.21132 36040 ft 414 kts 207°
2026-05-05 13:27 42.86623 11.18219 35995 ft 414 kts 207°
2026-05-05 13:28 42.81276 11.15316 35995 ft 413 kts 207°
2026-05-05 13:28 42.75941 11.12416 35998 ft 413 kts 208°
2026-05-05 13:29 42.70607 11.09528 35994 ft 413 kts 207°
2026-05-05 13:29 42.65270 11.06647 35982 ft 413 kts 208°
2026-05-05 13:30 42.59932 11.03765 35985 ft 413 kts 208°
2026-05-05 13:30 42.54596 11.00887 35990 ft 413 kts 208°
2026-05-05 13:31 42.49263 10.98009 35994 ft 413 kts 208°
2026-05-05 13:31 42.43917 10.95130 35989 ft 413 kts 208°
2026-05-05 13:32 42.38564 10.92265 36005 ft 414 kts 208°
2026-05-05 13:32 42.33244 10.89422 35995 ft 414 kts 208°
2026-05-05 13:33 42.27886 10.86550 35998 ft 414 kts 208°
2026-05-05 13:33 42.22534 10.83694 36004 ft 414 kts 208°
2026-05-05 13:34 42.17163 10.80842 36004 ft 414 kts 208°
2026-05-05 13:34 42.11797 10.77996 35992 ft 414 kts 208°
2026-05-05 13:35 42.06427 10.75144 35969 ft 415 kts 208°
2026-05-05 13:35 42.01054 10.72303 35992 ft 415 kts 208°
2026-05-05 13:36 41.95672 10.69459 35995 ft 415 kts 208°
2026-05-05 13:36 41.90282 10.66618 35987 ft 415 kts 208°
2026-05-05 13:37 41.84907 10.63772 35991 ft 415 kts 208°
2026-05-05 13:37 41.79528 10.60923 35996 ft 416 kts 208°
2026-05-05 13:38 41.74181 10.58103 36003 ft 416 kts 208°
2026-05-05 13:38 41.68795 10.55268 36013 ft 415 kts 208°
2026-05-05 13:39 41.63433 10.52459 35396 ft 412 kts 208°
2026-05-05 13:39 41.61673 10.51506 34906 ft 410 kts 212°
2026-05-05 13:39 41.59276 10.49552 34227 ft 401 kts 220°
2026-05-05 13:40 41.56985 10.47392 33408 ft 403 kts 220°
2026-05-05 13:40 41.54694 10.45223 32518 ft 405 kts 220°
2026-05-05 13:40 41.52382 10.43037 31581 ft 409 kts 220°
2026-05-05 13:40 41.50050 10.40837 30605 ft 413 kts 220°
2026-05-05 13:41 41.47693 10.38613 29570 ft 418 kts 220°
2026-05-05 13:41 41.45303 10.36355 28465 ft 423 kts 219°
2026-05-05 13:41 41.42891 10.34073 27456 ft 428 kts 219°
2026-05-05 13:41 41.40442 10.31763 26480 ft 433 kts 218°
2026-05-05 13:42 41.37980 10.29449 25552 ft 433 kts 218°
2026-05-05 13:42 41.35516 10.27142 24669 ft 432 kts 218°
2026-05-05 13:42 41.33066 10.24851 24146 ft 429 kts 218°
2026-05-05 13:42 41.30625 10.22569 23631 ft 428 kts 217°
2026-05-05 13:43 41.28193 10.20290 23061 ft 426 kts 217°
2026-05-05 13:43 41.25785 10.18033 22471 ft 422 kts 217°
2026-05-05 13:43 41.23396 10.15800 21890 ft 418 kts 217°
2026-05-05 13:43 41.21022 10.13587 21287 ft 415 kts 217°
2026-05-05 13:44 41.18666 10.11392 20717 ft 411 kts 217°
2026-05-05 13:44 41.16367 10.09247 20156 ft 408 kts 217°
2026-05-05 13:44 41.14052 10.07091 19603 ft 405 kts 217°
2026-05-05 13:44 41.11753 10.04948 19054 ft 402 kts 217°
2026-05-05 13:45 41.09470 10.02820 18513 ft 399 kts 216°
2026-05-05 13:45 41.07204 10.00712 17933 ft 396 kts 216°
2026-05-05 13:45 41.04955 9.98626 17350 ft 393 kts 216°
2026-05-05 13:45 41.02725 9.96562 16734 ft 390 kts 216°
2026-05-05 13:46 41.00504 9.94511 16123 ft 387 kts 216°
2026-05-05 13:46 40.98308 9.92478 15530 ft 384 kts 216°
2026-05-05 13:46 40.96165 9.90399 14937 ft 380 kts 222°
2026-05-05 13:46 40.94378 9.87857 14290 ft 377 kts 234°
2026-05-05 13:47 40.92895 9.85000 13646 ft 375 kts 236°
2026-05-05 13:47 40.91427 9.82157 12937 ft 374 kts 236°
2026-05-05 13:47 40.89979 9.79361 12250 ft 371 kts 236°
2026-05-05 13:47 40.88520 9.76559 11572 ft 369 kts 236°
2026-05-05 13:48 40.87067 9.73775 10906 ft 366 kts 235°
2026-05-05 13:48 40.85608 9.70980 10246 ft 364 kts 235°
2026-05-05 13:48 40.84177 9.68240 9573 ft 361 kts 236°
2026-05-05 13:48 40.82763 9.65536 9000 ft 355 kts 236°
2026-05-05 13:49 40.81390 9.62915 8567 ft 350 kts 235°
2026-05-05 13:49 40.79991 9.60244 8123 ft 348 kts 236°
2026-05-05 13:49 40.78623 9.57631 7703 ft 345 kts 236°
2026-05-05 13:49 40.77282 9.55067 7294 ft 343 kts 236°
2026-05-05 13:50 40.75931 9.52482 6886 ft 341 kts 235°
2026-05-05 13:50 40.74582 9.49902 6470 ft 340 kts 235°
2026-05-05 13:50 40.73244 9.47349 6043 ft 337 kts 235°
2026-05-05 13:50 40.71913 9.44817 5737 ft 331 kts 234°
2026-05-05 13:51 40.70627 9.42375 5472 ft 318 kts 235°
2026-05-05 13:51 40.69385 9.40016 5150 ft 308 kts 235°
2026-05-05 13:51 40.68180 9.37729 4825 ft 300 kts 235°
2026-05-05 13:51 40.67119 9.35417 4513 ft 291 kts 249°
2026-05-05 13:52 40.66853 9.32870 4349 ft 273 kts 276°
2026-05-05 13:52 40.67474 9.30638 4208 ft 253 kts 304°
2026-05-05 13:52 40.68618 9.28938 4055 ft 246 kts 313°
2026-05-05 13:52 40.69846 9.27368 3906 ft 246 kts 319°
2026-05-05 13:53 40.71213 9.26030 3759 ft 240 kts 323°
2026-05-05 13:53 40.72556 9.24826 3602 ft 229 kts 324°
2026-05-05 13:53 40.74052 9.24207 3459 ft 230 kts
2026-05-05 13:53 40.75556 9.24853 3309 ft 231 kts 37°
2026-05-05 13:54 40.76594 9.26456 3174 ft 228 kts 55°
2026-05-05 13:54 40.77469 9.28154 3063 ft 225 kts 55°
2026-05-05 13:54 40.78353 9.29852 3003 ft 223 kts 55°
2026-05-05 13:54 40.79238 9.31533 3009 ft 223 kts 54°
2026-05-05 13:55 40.80123 9.33212 3010 ft 223 kts 55°
2026-05-05 13:55 40.81011 9.34898 3008 ft 223 kts 54°
2026-05-05 13:55 40.81898 9.36583 2928 ft 224 kts 54°
2026-05-05 13:55 40.82786 9.38271 2661 ft 224 kts 55°
2026-05-05 13:56 40.83674 9.39960 2311 ft 223 kts 55°
2026-05-05 13:56 40.84549 9.41624 1978 ft 217 kts 56°
2026-05-05 13:56 40.85379 9.43205 1651 ft 202 kts 56°
2026-05-05 13:56 40.86149 9.44670 1370 ft 187 kts 57°
2026-05-05 13:57 40.86861 9.46026 1095 ft 170 kts 56°
2026-05-05 13:57 40.87500 9.47245 806 ft 154 kts 57°
2026-05-05 13:57 40.88093 9.48346 583 ft 142 kts 57°
2026-05-05 13:57 40.88647 9.49409 362 ft 138 kts 58°
2026-05-05 13:58 40.89177 9.50445 123 ft 135 kts 57°
2026-05-05 13:58 40.89699 9.51433 36 ft 122 kts 58°
2026-05-05 13:58 40.90066 9.52147 34 ft 75 kts 56°
2026-05-05 13:58 40.90294 9.52585 34 ft 33 kts 53°
2026-05-05 13:59 40.90454 9.52560 34 ft 13 kts 274°
2026-05-05 13:59 40.90430 9.52452 34 ft 12 kts 237°
2026-05-05 14:00 40.90347 9.52294 34 ft 9 kts 234°
2026-05-05 14:00 40.90323 9.52249 34 ft 9 kts 232°
2026-05-05 14:00 40.90250 9.52105 34 ft 20 kts 237°
2026-05-05 14:00 40.90178 9.51949 34 ft 17 kts 264°
2026-05-05 14:01 40.90202 9.51814 34 ft 14 kts 309°
2026-05-05 14:01 40.90194 9.51710 33 ft 12 kts 236°
2026-05-05 14:01 40.90152 9.51628 34 ft 10 kts 235°
2026-05-05 14:01 40.90114 9.51554 34 ft 8 kts 236°
2026-05-05 14:02 40.90079 9.51537 34 ft 5 kts 153°
2026-05-05 14:02 40.90066 9.51561 33 ft 2 kts 85°
2026-05-05 14:02 40.90066 9.51575 34 ft 1 kts 86°
2026-05-05 14:02 40.90067 9.51580 34 ft 0 kts 86°